Location: Marcé
(47.5801°N, 0.3280°W)
Time: 12:38:44
(UTC+01:00)

Explorer 7 - Pass Details

Date: 18 December 2021
Orbit: 483 x 674 km, 50.3° (Epoch: 19 January)

Event Time Altitude Azimuth Distance (km) Brightness Sun altitude
Exits shadow 05:35:20 30° 96° (E) 1,042 8.7 -30.8°
Drops below altitude 10° 05:37:29 10° 101° (E) 1,842 10.4 -30.4°
Sets 05:39:39 0° 103° (ESE) 2,702 11.5 -30.0°
